McCook, NE

4:47 PM CDT on April 30, 2017 (GMT -0500)
McCook Municipal

Weather History for KMCK - April, 2013

Change the Weather History Date:

Monday, April 22, 2013

  Actual Average Record
Temperature  
Mean Temperature 39 °F 52 °F  
Max Temperature 48 °F 67 °F 96 °F (1989)
Min Temperature 29 °F 37 °F 17 °F (1912)
Degree Days  
Heating Degree Days 26    
Moisture  
Dew Point 38 °F    
Average Humidity 90    
Maximum Humidity 100    
Minimum Humidity 72    
Precipitation  
Precipitation 0.80 in 0.09 in 1.21 in (2007)
Month to date precipitation 1.57 1.56  
Year to date precipitation 3.41 4.05  
Sea Level Pressure  
Sea Level Pressure 30.03 in    
Wind  
Wind Speed 14 mph (NE)    
Max Wind Speed 31 mph    
Max Gust Speed 40 mph    
Visibility 6 miles    
Events Fog , Rain , Thunderstorm    
T = Trace of Precipitation, MM = Missing Value Source: NWS Daily Summary

Daily Weather History Graph

Daily Weather History Graph

Search for Another Location

Airport or City:

Trip Planner

Search our weather history database for the weather conditions in past years. The results will help you decide how hot, cold, wet, or windy it might be!

Date:

Astronomy

Apr. 22, 2013 Rise Set
Actual Time 6:53 AM CDT 8:28 PM CDT
Civil Twilight 6:24 AM CDT 8:57 PM CDT
Nautical Twilight 5:50 AM CDT 9:32 PM CDT
Astronomical Twilight 5:13 AM CDT 10:09 PM CDT
Moon 5:19 PM CDT (4/22) 4:49 AM CDT (4/22)
Length of Visible Light 14h 32m
Length of Day
13h 35m
Waxing Gibbous, 88% of the Moon is Illuminated
Apr 22
Waxing Gibbous
Apr 25
Full
May 2
Last Quarter
May 9
New
May 17
First Quarter

Hourly Weather History & Observations

Time (CDT) Temp. Windchill Dew Point Humidity Pressure Visibility Wind Dir Wind Speed Gust Speed Precip Events Conditions
12:53 AM 48.0 °F - 42.1 °F 80% 30.03 in 10.0 mi East 17.3 mph 29.9 mph N/A   Overcast
1:53 AM 46.0 °F 42.5 °F 43.0 °F 89% 30.09 in 3.0 mi ENE 6.9 mph - 0.08 in Rain Rain
2:09 AM 46.4 °F 42.9 °F 42.8 °F 87% 30.09 in 5.0 mi North 6.9 mph - 0.02 in Rain Rain
2:17 AM 44.6 °F 39.2 °F 42.8 °F 93% 30.07 in 4.0 mi NE 10.4 mph - 0.04 in Rain Rain
2:53 AM 44.1 °F 37.1 °F 42.1 °F 93% 29.99 in 9.0 mi East 15.0 mph - 0.06 in   Scattered Clouds
3:11 AM 42.8 °F 36.6 °F 41.0 °F 93% 30.00 in 8.0 mi NE 11.5 mph - N/A   Scattered Clouds
3:20 AM 42.8 °F 37.5 °F 41.0 °F 93% 30.00 in 8.0 mi NE 9.2 mph - N/A   Mostly Cloudy
3:53 AM 43.0 °F 37.7 °F 41.0 °F 93% 29.96 in 6.0 mi East 9.2 mph - N/A   Overcast
4:02 AM 42.8 °F 35.4 °F 41.0 °F 93% 29.96 in 5.0 mi East 15.0 mph - N/A   Overcast
4:29 AM 42.8 °F 36.6 °F 41.0 °F 93% 29.96 in 2.0 mi East 11.5 mph - N/A   Overcast
4:38 AM 42.8 °F 35.8 °F 41.0 °F 93% 29.95 in 1.8 mi East 13.8 mph - N/A   Overcast
4:46 AM 42.8 °F 36.6 °F 41.0 °F 93% 29.95 in 2.5 mi East 11.5 mph - N/A   Overcast
4:53 AM 42.1 °F 34.9 °F 41.0 °F 96% 29.94 in 2.5 mi East 13.8 mph - N/A   Overcast
5:12 AM 42.8 °F 37.0 °F 42.8 °F 100% 29.95 in 1.0 mi East 10.4 mph - N/A   Overcast
5:22 AM 42.8 °F 37.0 °F 42.8 °F 100% 29.95 in 0.8 mi East 10.4 mph - N/A   Mist
5:34 AM 42.8 °F 35.8 °F 42.8 °F 100% 29.94 in 1.5 mi East 13.8 mph - N/A   Overcast
5:42 AM 42.8 °F 36.6 °F 42.8 °F 100% 29.94 in 2.5 mi East 11.5 mph - N/A   Overcast
5:50 AM 42.8 °F 37.0 °F 42.8 °F 100% 29.94 in 3.0 mi East 10.4 mph - N/A   Overcast
5:53 AM 43.0 °F 37.2 °F 42.1 °F 97% 29.93 in 3.0 mi East 10.4 mph - N/A   Overcast
6:53 AM 43.0 °F 37.2 °F 42.1 °F 97% 29.91 in 2.5 mi East 10.4 mph - N/A   Overcast
7:03 AM 42.8 °F 39.3 °F 42.8 °F 100% 29.94 in 1.2 mi ENE 5.8 mph - N/A   Overcast
7:24 AM 42.8 °F 38.6 °F 41.0 °F 93% 29.93 in 0.8 mi East 6.9 mph - N/A Thunderstorm Overcast
7:53 AM 43.0 °F 37.2 °F 42.1 °F 97% 29.91 in 0.2 mi ESE 10.4 mph - 0.03 in Fog , Rain Heavy Rain
8:14 AM 42.8 °F 37.5 °F 42.8 °F 100% 29.92 in 0.2 mi East 9.2 mph - 0.01 in Fog , Thunderstorm Unknown
8:25 AM 42.8 °F 34.3 °F 42.8 °F 100% 29.95 in 1.8 mi NNW 19.6 mph - 0.01 in Thunderstorm Overcast
8:28 AM 42.8 °F 33.8 °F 42.8 °F 100% 29.95 in 4.0 mi NNW 21.9 mph 28.8 mph 0.01 in Thunderstorm Overcast
8:35 AM 44.6 °F 36.4 °F 42.8 °F 93% 29.96 in 9.0 mi NW 20.7 mph 28.8 mph 0.01 in Thunderstorm Thunderstorm
8:53 AM 42.1 °F 36.1 °F 41.0 °F 96% 29.97 in 3.0 mi NNW 10.4 mph - 0.14 in Rain , Thunderstorm Heavy Thunderstorms and Rain
8:56 AM 42.8 °F 37.0 °F 41.0 °F 93% 29.96 in 1.8 mi North 10.4 mph - 0.04 in Rain , Thunderstorm Heavy Thunderstorms and Rain
9:06 AM 41.0 °F 33.9 °F 39.2 °F 93% 29.95 in 1.5 mi NNE 12.7 mph - 0.11 in Rain , Thunderstorm Heavy Thunderstorms and Rain
9:22 AM 42.8 °F 36.6 °F 41.0 °F 93% 29.93 in 3.0 mi NE 11.5 mph - 0.15 in Rain , Thunderstorm Light Rain
9:53 AM 42.1 °F 36.6 °F 41.0 °F 96% 29.94 in 2.5 mi ENE 9.2 mph - 0.20 in Rain , Thunderstorm Thunderstorms and Rain
10:04 AM 42.8 °F 40.1 °F 41.0 °F 93% 29.95 in 2.0 mi North 4.6 mph - 0.03 in Rain , Thunderstorm Thunderstorms and Rain
10:11 AM 42.8 °F 37.5 °F 42.8 °F 100% 29.95 in 1.8 mi NE 9.2 mph - 0.08 in Rain , Thunderstorm Thunderstorms and Rain
10:53 AM 43.0 °F 36.0 °F 42.1 °F 97% 29.99 in 1.5 mi NNE 13.8 mph - 0.28 in Rain , Thunderstorm Heavy Thunderstorms and Rain
11:00 AM 42.8 °F 35.4 °F 41.0 °F 93% 29.98 in 2.5 mi NNE 15.0 mph - 0.01 in Rain , Thunderstorm Rain
11:05 AM 42.8 °F 35.4 °F 41.0 °F 93% 29.98 in 4.0 mi NNE 15.0 mph - 0.01 in Rain Light Rain
11:15 AM 42.8 °F 34.8 °F 39.2 °F 87% 29.97 in 9.0 mi NNE 17.3 mph - 0.01 in   Overcast
11:49 AM 42.8 °F 34.5 °F 39.2 °F 87% 29.96 in 10.0 mi NNE 18.4 mph 25.3 mph 0.01 in   Overcast
11:53 AM 42.1 °F 32.8 °F 39.0 °F 89% 29.98 in 10.0 mi NNE 21.9 mph 26.5 mph 0.01 in   Overcast
12:00 PM 42.8 °F 33.8 °F 39.2 °F 87% 29.97 in 10.0 mi NNE 21.9 mph 28.8 mph N/A   Overcast
12:53 PM 37.0 °F 24.3 °F 34.0 °F 89% 30.04 in 10.0 mi North 31.1 mph 36.8 mph N/A   Overcast
1:53 PM 34.0 °F 20.3 °F 30.0 °F 85% 30.08 in 10.0 mi North 29.9 mph 40.3 mph N/A   Overcast
2:09 PM 33.8 °F 20.3 °F 30.2 °F 87% 30.07 in 10.0 mi North 28.8 mph 39.1 mph N/A   Overcast
2:53 PM 32.0 °F 18.9 °F 28.0 °F 85% 30.16 in 10.0 mi North 24.2 mph 34.5 mph N/A   Overcast
3:34 PM 32.0 °F 18.6 °F 26.6 °F 80% 30.11 in 10.0 mi NNE 25.3 mph 36.8 mph N/A   Overcast
3:53 PM 34.0 °F 20.8 °F 28.0 °F 79% 30.16 in 10.0 mi NNE 27.6 mph 35.7 mph N/A   Overcast
4:53 PM 35.1 °F 21.8 °F 27.0 °F 72% 30.17 in 10.0 mi North 29.9 mph 38.0 mph N/A   Overcast
5:53 PM 32.0 °F 18.9 °F 26.1 °F 79% 30.23 in 10.0 mi NNE 24.2 mph 32.2 mph N/A   Overcast
6:53 PM 30.9 °F 17.8 °F 25.0 °F 79% 30.25 in 10.0 mi NNE 23.0 mph 31.1 mph N/A   Overcast
7:53 PM 30.9 °F 18.7 °F 24.1 °F 76% 30.26 in 10.0 mi NNE 19.6 mph 27.6 mph N/A   Overcast
8:53 PM 30.9 °F 17.8 °F 24.1 °F 76% 30.31 in 10.0 mi North 23.0 mph 27.6 mph N/A   Overcast
9:53 PM 30.0 °F 16.3 °F 23.0 °F 75% 30.33 in 10.0 mi NNE 24.2 mph 27.6 mph N/A   Overcast
10:53 PM 30.9 °F 18.1 °F 23.0 °F 72% 30.37 in 10.0 mi North 21.9 mph - N/A   Overcast
11:53 PM 30.0 °F 16.9 °F 23.0 °F 75% 30.34 in 10.0 mi NNE 21.9 mph 29.9 mph N/A   Overcast